Location: Moy Burn
(57.3833°N, 4.0667°W)
Time: 09:18:42
(UTC+00:00)

Cosmos 1190 Rocket - Pass Details

Date: 08 August 2020
Orbit: 756 x 780 km, 74.1° (Epoch: 18 September)

Event Time Altitude Azimuth Distance (km) Brightness Sun altitude
Rises 21:58:18 0° 209° (SSW) 3,239 7.0 -11.0°
Reaches altitude 10° 22:00:39 10° 210° (SSW) 2,319 6.2 -11.2°
Maximum altitude 22:05:57 86° 298° (WNW) 788 4.1 -11.6°
Drops below altitude 10° 22:11:18 10° 29° (NNE) 2,346 6.9 -12.0°
Sets 22:13:42 0° 30° (NNE) 3,279 7.7 -12.1°
